Hourly Weather Kitzingen

Today, 21 October, Wednesday

Time Temperature Precipitation Wind Pressure Humidity
00:00 +10°C° 0 mm 2 mps 740 mmHg 71%
01:00 +10°C° 0 mm 2 mps 739 mmHg 67%
02:00 +10°C° 0 mm 2 mps 739 mmHg 66%
03:00 +10°C° 0 mm 2 mps 739 mmHg 64%
04:00 +10°C° 0 mm 2 mps 739 mmHg 63%
05:00 +10°C° 0 mm 2 mps 739 mmHg 66%
06:00 +10°C° 0 mm 1 mps 739 mmHg 69%
07:00 +9°C° 0 mm 2 mps 738 mmHg 69%
08:00 +10°C° 0 mm 2 mps 738 mmHg 66%
09:00 +12°C° 0 mm 2 mps 738 mmHg 63%
10:00 +14°C° 0 mm 2 mps 738 mmHg 61%
11:00 +15°C° 0 mm 2 mps 738 mmHg 59%
12:00 +17°C° 0 mm 3 mps 738 mmHg 57%
13:00 +18°C° 0 mm 3 mps 738 mmHg 55%
14:00 +18°C° 0 mm 3 mps 738 mmHg 59%
15:00 +18°C° 0 mm 3 mps 738 mmHg 64%
16:00 +18°C° 0 mm 3 mps 738 mmHg 68%
17:00 +17°C° 0 mm 3 mps 738 mmHg 70%
18:00 +16°C° 0 mm 3 mps 739 mmHg 72%
19:00 +14°C° 0 mm 3 mps 739 mmHg 74%
20:00 +14°C° 0 mm 3 mps 740 mmHg 70%
21:00 +14°C° 0 mm 4 mps 740 mmHg 66%
22:00 +14°C° 0 mm 4 mps 741 mmHg 62%
23:00 +14°C° 0 mm 4 mps 741 mmHg 64%

Tomorrow, 22 October, Thursday

Time Temperature Precipitation Wind Pressure Humidity
00:00 +13°C° 0 mm 4 mps 741 mmHg 66%
01:00 +13°C° 0 mm 4 mps 741 mmHg 68%
02:00 +13°C° 0 mm 3 mps 741 mmHg 71%
03:00 +13°C° 0 mm 3 mps 741 mmHg 74%
04:00 +12°C° 0 mm 3 mps 741 mmHg 76%
05:00 +12°C° 0 mm 3 mps 742 mmHg 78%
06:00 +12°C° 0 mm 3 mps 742 mmHg 80%
07:00 +12°C° 0 mm 3 mps 742 mmHg 81%
08:00 +13°C° 0 mm 3 mps 742 mmHg 77%
09:00 +16°C° 0 mm 3 mps 743 mmHg 72%
10:00 +17°C° 0 mm 4 mps 743 mmHg 68%
11:00 +18°C° 0 mm 4 mps 743 mmHg 66%
12:00 +19°C° 0 mm 4 mps 743 mmHg 63%
13:00 +20°C° 0 mm 4 mps 743 mmHg 61%
14:00 +19°C° 0 mm 4 mps 742 mmHg 63%
15:00 +19°C° 0 mm 4 mps 742 mmHg 65%
16:00 +18°C° 0 mm 4 mps 742 mmHg 67%
17:00 +18°C° 0 mm 4 mps 742 mmHg 68%
18:00 +17°C° 0 mm 4 mps 742 mmHg 69%
19:00 +15°C° 0 mm 4 mps 742 mmHg 70%
20:00 +16°C° 0.1 mm 3 mps 742 mmHg 75%
21:00 +16°C° 0.1 mm 3 mps 742 mmHg 81%
22:00 +14°C° 0.1 mm 3 mps 742 mmHg 86%
23:00 +14°C° 0 mm 3 mps 742 mmHg 87%

Day after tomorrow, 23 October, Friday

Time Temperature Precipitation Wind Pressure Humidity
00:00 +14°C° 0 mm 3 mps 742 mmHg 88%
01:00 +14°C° 0 mm 2 mps 742 mmHg 90%
02:00 +13°C° 0.1 mm 3 mps 741 mmHg 89%
03:00 +13°C° 0.1 mm 3 mps 741 mmHg 88%
04:00 +13°C° 0.1 mm 4 mps 741 mmHg 88%
05:00 +13°C° 0.1 mm 4 mps 741 mmHg 89%
06:00 +13°C° 0.1 mm 3 mps 741 mmHg 90%
07:00 +13°C° 0.1 mm 3 mps 741 mmHg 92%
08:00 +14°C° 0.2 mm 3 mps 741 mmHg 91%
09:00 +14°C° 0.2 mm 4 mps 741 mmHg 91%
10:00 +14°C° 0.2 mm 4 mps 741 mmHg 90%
11:00 +14°C° 0.5 mm 4 mps 741 mmHg 91%
12:00 +14°C° 0.5 mm 4 mps 741 mmHg 91%
13:00 +14°C° 0.5 mm 3 mps 741 mmHg 92%
14:00 +14°C° 0.6 mm 3 mps 740 mmHg 92%
15:00 +14°C° 0.6 mm 3 mps 740 mmHg 92%
16:00 +14°C° 0.6 mm 3 mps 740 mmHg 93%
17:00 +13°C° 0.2 mm 3 mps 740 mmHg 94%
18:00 +13°C° 0.2 mm 3 mps 740 mmHg 95%
19:00 +13°C° 0.2 mm 3 mps 741 mmHg 96%
20:00 +12°C° 0.2 mm 3 mps 741 mmHg 95%
21:00 +12°C° 0.2 mm 3 mps 741 mmHg 95%
22:00 +12°C° 0.2 mm 4 mps 741 mmHg 95%
23:00 +12°C° 0.1 mm 4 mps 742 mmHg 95%

24 October, Saturday

Time Temperature Precipitation Wind Pressure Humidity
00:00 +12°C° 0.1 mm 4 mps 742 mmHg 95%
01:00 +11°C° 0.1 mm 4 mps 742 mmHg 95%
02:00 +11°C° 0 mm 4 mps 742 mmHg 95%
03:00 +11°C° 0 mm 4 mps 742 mmHg 95%
04:00 +10°C° 0 mm 4 mps 743 mmHg 94%
05:00 +10°C° 0 mm 4 mps 743 mmHg 94%
06:00 +10°C° 0 mm 4 mps 743 mmHg 94%
07:00 +10°C° 0 mm 4 mps 743 mmHg 94%
08:00 +11°C° 0 mm 4 mps 743 mmHg 91%
09:00 +12°C° 0 mm 5 mps 744 mmHg 88%
10:00 +13°C° 0 mm 5 mps 744 mmHg 85%
11:00 +13°C° 0.1 mm 5 mps 744 mmHg 81%
12:00 +13°C° 0.1 mm 5 mps 744 mmHg 78%
13:00 +14°C° 0.1 mm 5 mps 743 mmHg 75%
14:00 +14°C° 0 mm 5 mps 743 mmHg 75%
15:00 +13°C° 0 mm 4 mps 743 mmHg 76%
16:00 +13°C° 0 mm 3 mps 743 mmHg 77%
17:00 +12°C° 0 mm 3 mps 743 mmHg 81%
18:00 +11°C° 0 mm 3 mps 743 mmHg 84%
19:00 +10°C° 0 mm 2 mps 743 mmHg 88%
20:00 +10°C° 0 mm 2 mps 743 mmHg 88%
21:00 +10°C° 0 mm 2 mps 743 mmHg 89%
22:00 +10°C° 0 mm 2 mps 743 mmHg 89%
23:00 +9°C° 0 mm 2 mps 743 mmHg 90%

25 October, Sunday

Time Temperature Precipitation Wind Pressure Humidity
00:00 +9°C° 0 mm 2 mps 742 mmHg 90%
01:00 +9°C° 0 mm 2 mps 742 mmHg 91%
02:00 +9°C° 0 mm 2 mps 742 mmHg 91%
03:00 +8°C° 0 mm 2 mps 741 mmHg 90%
04:00 +8°C° 0 mm 2 mps 741 mmHg 90%
05:00 +8°C° 0 mm 2 mps 741 mmHg 90%
06:00 +8°C° 0 mm 2 mps 740 mmHg 89%
07:00 +8°C° 0 mm 2 mps 740 mmHg 89%
08:00 +10°C° 0 mm 3 mps 740 mmHg 84%
09:00 +12°C° 0 mm 4 mps 739 mmHg 79%
10:00 +13°C° 0 mm 5 mps 739 mmHg 73%
11:00 +15°C° 0 mm 5 mps 739 mmHg 70%
12:00 +16°C° 0 mm 5 mps 738 mmHg 67%
13:00 +17°C° 0 mm 5 mps 737 mmHg 63%
14:00 +18°C° 0 mm 4 mps 737 mmHg 66%
15:00 +17°C° 0 mm 4 mps 736 mmHg 69%
16:00 +17°C° 0 mm 3 mps 736 mmHg 71%
17:00 +14°C° 0 mm 3 mps 736 mmHg 76%
18:00 +13°C° 0 mm 3 mps 736 mmHg 80%
19:00 +11°C° 0 mm 3 mps 736 mmHg 85%
20:00 +12°C° 0 mm 2 mps 736 mmHg 85%
21:00 +12°C° 0 mm 2 mps 737 mmHg 85%
22:00 +10°C° 0 mm 2 mps 737 mmHg 84%
23:00 +10°C° 0 mm 2 mps 737 mmHg 84%

26 October, Monday

Time Temperature Precipitation Wind Pressure Humidity
00:00 +10°C° 0 mm 2 mps 737 mmHg 84%
01:00 +10°C° 0 mm 2 mps 737 mmHg 84%
02:00 +10°C° 0.1 mm 2 mps 737 mmHg 86%
03:00 +10°C° 0.1 mm 2 mps 737 mmHg 88%
04:00 +9°C° 0.1 mm 2 mps 737 mmHg 90%
05:00 +9°C° 0.5 mm 2 mps 737 mmHg 91%
06:00 +9°C° 0.5 mm 2 mps 737 mmHg 92%
07:00 +9°C° 0.5 mm 2 mps 737 mmHg 93%
08:00 +9°C° 0.7 mm 2 mps 737 mmHg 91%
09:00 +9°C° 0.7 mm 2 mps 737 mmHg 89%
10:00 +11°C° 0.7 mm 1 mps 737 mmHg 87%
11:00 +11°C° 0.6 mm 1 mps 736 mmHg 86%
12:00 +11°C° 0.6 mm 1 mps 736 mmHg 86%
13:00 +11°C° 0.6 mm 1 mps 736 mmHg 85%
14:00 +11°C° 0.6 mm 1 mps 736 mmHg 86%
15:00 +11°C° 0.6 mm 1 mps 736 mmHg 87%
16:00 +11°C° 0.6 mm 1 mps 736 mmHg 88%
17:00 +10°C° 0.5 mm 1 mps 736 mmHg 88%
18:00 +10°C° 0.5 mm 1 mps 736 mmHg 89%
19:00 +10°C° 0.5 mm 1 mps 737 mmHg 89%
20:00 +10°C° 0.1 mm 1 mps 737 mmHg 89%
21:00 +9°C° 0.1 mm 1 mps 737 mmHg 88%
22:00 +9°C° 0.1 mm 1 mps 737 mmHg 88%
23:00 +9°C° 0.1 mm 1 mps 737 mmHg 88%

27 October, Tuesday

Time Temperature Precipitation Wind Pressure Humidity
00:00 +9°C° 0.1 mm 1 mps 737 mmHg 89%
01:00 +8°C° 0.1 mm 2 mps 737 mmHg 89%
02:00 +8°C° 0.5 mm 2 mps 737 mmHg 90%
03:00 +8°C° 0.5 mm 2 mps 737 mmHg 91%
04:00 +8°C° 0.5 mm 2 mps 738 mmHg 92%
05:00 +8°C° 0.5 mm 2 mps 738 mmHg 92%
06:00 +8°C° 0.5 mm 3 mps 738 mmHg 91%
07:00 +8°C° 0.5 mm 3 mps 738 mmHg 91%
08:00 +8°C° 0.1 mm 3 mps 739 mmHg 89%
09:00 +8°C° 0.1 mm 3 mps 739 mmHg 87%
10:00 +9°C° 0.1 mm 3 mps 739 mmHg 86%
11:00 +9°C° 0 mm 3 mps 740 mmHg 83%
12:00 +10°C° 0 mm 3 mps 740 mmHg 80%
13:00 +11°C° 0 mm 3 mps 740 mmHg 77%
14:00 +10°C° 0.1 mm 3 mps 740 mmHg 79%
15:00 +10°C° 0.1 mm 3 mps 741 mmHg 81%
16:00 +10°C° 0.1 mm 2 mps 741 mmHg 83%
17:00 +9°C° 0 mm 2 mps 741 mmHg 85%
18:00 +9°C° 0 mm 2 mps 741 mmHg 86%
19:00 +9°C° 0 mm 1 mps 742 mmHg 88%
20:00 +9°C° 0 mm 1 mps 742 mmHg 89%
21:00 +8°C° 0 mm 1 mps 743 mmHg 90%
22:00 +8°C° 0 mm 1 mps 743 mmHg 91%
23:00 +7°C° 0 mm 1 mps 743 mmHg 91%
Show more